Location: Putah Creek Observatory
(38.7021°N, 122.3865°W)
Time: 11:06:28
(UTC-07:00)

Cosmos 2219 Rocket - Pass Details

Date: 27 May 2018
Orbit: 830 x 845 km, 71.0° (Epoch: 18 June)

Event Time Altitude Azimuth Distance (km) Brightness Sun altitude
Rises 23:00:10 0° 338° (NNW) 3,378 6.7 -22.9°
Reaches altitude 10° 23:02:37 10° 339° (NNW) 2,442 5.7 -23.2°
Maximum altitude 23:08:13 81° 67° (ENE) 846 2.1 -23.7°
Enters shadow 23:09:16 60° 141° (SE) 949 2.1 -23.8°
